STARLINK-1433 (45711 NORAD) Tracking and Keplerian Element Data

This shows tracking and keplerian element data for the satellite.

Feedback or suggestion? Click here.




ElementValue
Catalog45711
NameSTARLINK-1433
Epoch Orbit657
Epoch Day192.16668981
Epoch Year2020
RAAN352.3255
Inclination53.0018
Eccentricity0.0001207
Argument of Perigee66.8375
Mean Anonmoly90.6069
Mean Motion15.62817719
Decay Rate-0.00082204
L11 45711U 20035BG 20192.16668981 -.00082204 00000-0 -89872-3 0 9992
L22 45711 53.0018 352.3255 0001207 66.8375 90.6069 15.62817719 6572

Live tracking and technical data element details for STARLINK-1433 (NORAD 45711). STARLINK-1433 can be tracked NOW for your location showing map with azimuth and elevation plus other details from your city location.

Track the satellite on the map from your city or location and see movement details for azimuth, elevation, latitude, longitude, range, height, and movement on the map or in text.







IsCatalogInMostPopularTable: catalog: 45711, numindb: 5
Update: records affected: 1



GetName: 45711 STARLINK-1433

Hit Count: updated at: Fri, 10 Jul 2020 16:43:46 GMT